TimeEDT,TemperatureF,Dew PointF,Humidity,Sea Level PressureIn,VisibilityMPH,Wind Direction,Wind SpeedMPH,Gust SpeedMPH,PrecipitationIn,Events,Conditions,WindDirDegrees,DateUTC
12:15 AM,69.8,64.4,83,29.87,10.0,Calm,Calm,-,N/A,,Clear,0,2012-10-17 04:15:00
12:35 AM,68.0,64.4,88,29.87,9.0,Calm,Calm,-,N/A,,Clear,0,2012-10-17 04:35:00
12:55 AM,69.8,64.4,83,29.87,10.0,Calm,Calm,-,N/A,,Clear,0,2012-10-17 04:55:00
1:15 AM,66.2,66.2,100,29.87,9.0,Calm,Calm,-,N/A,,Clear,0,2012-10-17 05:15:00
1:35 AM,66.2,66.2,100,29.87,8.0,Calm,Calm,-,N/A,,Clear,0,2012-10-17 05:35:00
1:55 AM,66.2,66.2,100,29.86,9.0,Calm,Calm,-,N/A,,Clear,0,2012-10-17 05:55:00
2:15 AM,66.2,66.2,100,29.87,10.0,Calm,Calm,-,N/A,,Clear,0,2012-10-17 06:15:00
2:35 AM,66.2,66.2,100,29.86,8.0,Calm,Calm,-,N/A,,Clear,0,2012-10-17 06:35:00
2:55 AM,66.2,66.2,100,29.86,8.0,Calm,Calm,-,N/A,,Clear,0,2012-10-17 06:55:00
3:15 AM,66.2,64.4,94,29.86,9.0,Calm,Calm,-,N/A,,Clear,0,2012-10-17 07:15:00
3:35 AM,66.2,66.2,100,29.86,9.0,Calm,Calm,-,N/A,,Clear,0,2012-10-17 07:35:00
3:55 AM,66.2,66.2,100,29.85,9.0,Calm,Calm,-,N/A,,Clear,0,2012-10-17 07:55:00
4:15 AM,66.2,66.2,100,29.85,9.0,Calm,Calm,-,N/A,,Clear,0,2012-10-17 08:15:00
4:35 AM,66.2,66.2,100,29.86,9.0,Calm,Calm,-,N/A,,Clear,0,2012-10-17 08:35:00
4:55 AM,66.2,66.2,100,29.85,9.0,Calm,Calm,-,N/A,,Partly Cloudy,0,2012-10-17 08:55:00
5:15 AM,64.4,64.4,100,29.85,10.0,Calm,Calm,-,N/A,,Partly Cloudy,0,2012-10-17 09:15:00
5:35 AM,64.4,64.4,100,29.85,9.0,Calm,Calm,-,N/A,,Clear,0,2012-10-17 09:35:00
5:55 AM,66.2,66.2,100,29.85,8.0,Calm,Calm,-,N/A,,Clear,0,2012-10-17 09:55:00
6:15 AM,66.2,66.2,100,29.85,8.0,Calm,Calm,-,N/A,,Clear,0,2012-10-17 10:15:00
6:35 AM,66.2,66.2,100,29.86,10.0,Calm,Calm,-,N/A,,Clear,0,2012-10-17 10:35:00
6:55 AM,66.2,66.2,100,29.86,9.0,Calm,Calm,-,N/A,,Clear,0,2012-10-17 10:55:00
7:15 AM,66.2,66.2,100,29.87,8.0,Calm,Calm,-,N/A,,Clear,0,2012-10-17 11:15:00
7:30 AM,66.2,66.2,100,29.88,9.0,Calm,Calm,-,N/A,,Overcast,0,2012-10-17 11:30:00
7:53 AM,66.2,66.2,100,29.89,9.0,Calm,Calm,-,N/A,,Overcast,0,2012-10-17 11:53:00
11:55 AM,77.0,69.8,78,29.92,10.0,Variable,4.6,-,N/A,,Overcast,0,2012-10-17 15:55:00
12:50 PM,78.8,69.8,74,29.91,10.0,Variable,4.6,-,N/A,,Overcast,0,2012-10-17 16:50:00
1:50 PM,80.6,68.0,65,29.88,10.0,Variable,4.6,-,N/A,,Overcast,0,2012-10-17 17:50:00
2:50 PM,80.6,66.2,61,29.85,10.0,Variable,4.6,-,N/A,,Overcast,0,2012-10-17 18:50:00
3:35 PM,80.6,68.0,65,29.85,8.0,WSW,6.9,-,N/A,,Partly Cloudy,240,2012-10-17 19:35:00
3:55 PM,80.6,69.8,70,29.84,7.0,NW,4.6,-,N/A,,Scattered Clouds,310,2012-10-17 19:55:00
4:15 PM,80.6,69.8,70,29.84,7.0,NNW,5.8,-,N/A,,Scattered Clouds,330,2012-10-17 20:15:00
4:35 PM,78.8,69.8,74,29.84,7.0,WNW,4.6,-,N/A,,Partly Cloudy,300,2012-10-17 20:35:00
4:55 PM,78.8,69.8,74,29.84,7.0,WNW,4.6,-,N/A,,Clear,290,2012-10-17 20:55:00
5:15 PM,78.8,69.8,74,29.84,7.0,West,4.6,-,N/A,,Clear,280,2012-10-17 21:15:00
5:35 PM,78.8,69.8,74,29.84,8.0,WNW,4.6,-,N/A,,Clear,290,2012-10-17 21:35:00
5:55 PM,78.8,69.8,74,29.83,7.0,Calm,Calm,-,N/A,,Clear,0,2012-10-17 21:55:00
6:15 PM,78.8,69.8,74,29.83,8.0,West,3.5,-,N/A,,Clear,260,2012-10-17 22:15:00
6:35 PM,78.8,69.8,74,29.83,7.0,Calm,Calm,-,N/A,,Clear,0,2012-10-17 22:35:00
6:55 PM,77.0,69.8,78,29.84,7.0,NNW,3.5,-,N/A,,Clear,330,2012-10-17 22:55:00
7:15 PM,77.0,69.8,78,29.84,8.0,Calm,Calm,-,N/A,,Clear,0,2012-10-17 23:15:00
7:35 PM,75.2,71.6,89,29.84,8.0,Calm,Calm,-,N/A,,Clear,0,2012-10-17 23:35:00
7:55 PM,73.4,71.6,94,29.85,7.0,Calm,Calm,-,N/A,,Clear,0,2012-10-17 23:55:00
8:15 PM,73.4,73.4,100,29.85,7.0,Calm,Calm,-,N/A,,Clear,0,2012-10-18 00:15:00
8:35 PM,71.6,71.6,100,29.86,7.0,Calm,Calm,-,N/A,,Clear,0,2012-10-18 00:35:00
8:55 PM,71.6,71.6,100,29.87,7.0,Calm,Calm,-,N/A,,Clear,0,2012-10-18 00:55:00
9:15 PM,71.6,71.6,100,29.88,6.0,Calm,Calm,-,N/A,,Scattered Clouds,0,2012-10-18 01:15:00
9:35 PM,71.6,71.6,100,29.89,5.0,Calm,Calm,-,N/A,,Mostly Cloudy,0,2012-10-18 01:35:00
9:55 PM,71.6,71.6,100,29.89,5.0,SE,4.6,-,N/A,,Mostly Cloudy,140,2012-10-18 01:55:00
10:15 PM,71.6,71.6,100,29.90,9.0,ESE,3.5,-,N/A,,Mostly Cloudy,110,2012-10-18 02:15:00
10:35 PM,69.8,69.8,100,29.91,10.0,SE,8.1,-,N/A,,Mostly Cloudy,130,2012-10-18 02:35:00
10:55 PM,69.8,69.8,100,29.91,10.0,SE,5.8,-,N/A,,Mostly Cloudy,130,2012-10-18 02:55:00
11:15 PM,69.8,69.8,100,29.91,10.0,SE,5.8,-,N/A,,Partly Cloudy,130,2012-10-18 03:15:00
11:35 PM,69.8,69.8,100,29.90,10.0,SE,3.5,-,N/A,,Clear,130,2012-10-18 03:35:00
11:55 PM,68.0,68.0,100,29.90,9.0,Calm,Calm,-,N/A,,Light Drizzle,0,2012-10-18 03:55:00